"Pseudo-MPEC" for P115PYq

Created 2020 Sep 25 1:07:17 UT using Find_Orb

Click here for an explanation of pseudo-MPECs

 
 Astrometry: 
     P115PYq  C2020 09 134]T`1T8j9qh3QpD-I7kHqX^*gtjIH8`Lxqj;?a]SlSQSWhEY_#=CF51
     P115PYq  C2020 09 13Dx=4G@,_ZY8Q_(FYD*fj]=Dn+iMDFkADi83jX?*8xBC8JjqHt]91F51
     P115PYq  C2020 09 13]_S]D$Jgp]2O#AU^?mb/d1]GJn!at:g(QmLUqnLUU2BPgZo[B$E-F51
     P115PYq  C2020 09 13aGW0r^q9fH`9XXa^3gmycCfC9G?qGM3H^C$W[upHxWaVi:VC-U`*F51
     P115PYq  C2020 09 13A)CCHoDO\F4YJk:;bxL#.;%q/LbmHkkkn`5CB[1U_o9rX7D5E`;GF51
     P115PYq  C2020 09 131q0^Z$`KoQs/@q+U(`n_/.WAyUWEoLF'C1?#i%)80VG*M,90F-IUF51
     P115PYq  C2020 09 13;ZQAstrometry;5.:+4:fW%+5ndr`tNa$Vm=@9$iItI5^b)Cvw/-F51
     P115PYq  C2020 09 14#:BK$nfRCMVSAMs4Rb]Le7;IyxmuOV],qYXOND(Kq8$lfQ[r9x$0F51
     P115PYq  C2020 09 14m'/EN_tredacted;+B'V!9+)7gTb2/FcjrVbJ4r=(DA6Ocq+dk!XF51
     P115PYq  C2020 09 14V^CM^,=Vc%QxwmZ9l!*AU'6@r8u*I9ilf'x]^;cdm;:uU,P9(no/F51
     P115PYq  C2020 09 14*i[wdeFXT8x\j\t,y8S:Tm5de#(3Lkq;LnZ7:lF,j\wV)%H\?#).F51
     P115PYq  C2020 09 15g)MDe`qclick02f\tul@'7V$=faC4w7'%XdRW*m(:%Hw+IKZoE,!F51
     P115PYq  C2020 09 15@$g\!!3=m:B%%O\cBd#Gg,6Kg+J)lK#p89qnMh;ge@F:W/6ug]bAF51
     P115PYq  C2020 09 15CxG0^qm*CK5dK]kmx32sYPCKdS4+wherefRa$J/.m4b\xg@D5WGkF51
     P115PYq  C2020 09 15j(AgDmQR[])for!iDZ9Sh`g+C@Lca[ucMekHSio^A*uJ,eof$.eDF51
     P115PYq  C2020 09 16m.@K\[`WDgv56)%+h6=%v(N-P$LNr4ll_('y9Lg6;#stb;uxYTNaF51
     P115PYq  C2020 09 16(jHXotaA.explanation-3G6:!O@h?6Em0-._`g94)AYQTNoo4\6F51
     P115PYq  C2020 09 16lP7vqY;-X.q?q1%8$nAMMTUS#JA%`1L6HH-[cn9L@YwQ85U,WU3*F51
     P115PYq  C2020 09 16ch]@lXRjLC8tPN7ygcsF:$9PYE-i3k,UNM`M.PSQCM\qd5^(._B2F51

Station data:
(F51) Pan-STARRS 1, Haleakala  (N20.707235 W156.255910)  US/Hawaii.
   Observers N. Primak, A. Schultz, S. Watters, J. Thiel, T. Goggia. Measurer
   PS1 Science Consortium. 1.8-m Ritchey-Chrétien + CCD.

Orbital elements:  P115PYq
   Perihelion 2020 Aug 6.973400 +/- 0.0111 TT = 23:21:41 (JD 2459068.473400)
Epoch 2020 Sep 16.0 TT = JDT 2459108.5   Earth MOID: 0.0005   Ma: 0.0066
M  11.32297194 +/- 0.039            (J2000 ecliptic)          AutoNEOCP
n   0.28288617 +/- 0.000921         Peri.  131.15961 +/- 0.0038
a   2.29823745 +/- 0.00499          Node   169.09700 +/- 0.0006
e   0.6162398 +/- 0.000888          Incl.    1.41894 +/- 0.0014
P   3.48                   H 29.0   G  0.15   U  8.0  
q 0.88197200 +/- 0.000128    Q 3.71450289 +/- 0.0101
From 19 observations 2020 Sept. 13-16; mean residual 0".09
Residuals in arcseconds: 
200913 F51  .03-  .06-    200914 F51  .07-  .00     200915 F51  .20+  .15-    
200913 F51  .07+  .02+    200914 F51  .14+  .03-    200916 F51  .04-  .02+    
200913 F51  .06-  .02+    200914 F51  .07-  .05-    200916 F51  .07+  .00     
200913 F51  .03+  .09-    200914 F51  .05-  .05+    200916 F51  .06-  .04-    
200913 F51  .03-  .04+    200915 F51  .13-  .25+    200916 F51  .02+  .12+    
200913 F51  .02+  .08+    200915 F51  .06-  .03+    
200913 F51  .02+  .04+    200915 F51  .03+  .29-    

Ephemerides (geocentric):
Date (UTC) HH   RA              Dec         delta   r     elong  mag " sig PA
---- -- -- --  -------------   -----------  ------ ------ -----  --- ---- ---
2020 09 25 01  00 52 22.881   +01 53 44.65  .11258 1.1135 168.8 25.2 .508  95
2020 09 25 02  00 52 22.713   +01 53 42.52  .11292 1.1139 168.9 25.2 .509  95
2020 09 25 03  00 52 22.544   +01 53 40.40  .11325 1.1142 168.9 25.2 .511  95
2020 09 25 04  00 52 22.372   +01 53 38.29  .11358 1.1145 168.9 25.2 .512  95
2020 09 25 05  00 52 22.198   +01 53 36.19  .11392 1.1149 169.0 25.2 .513  95
2020 09 25 06  00 52 22.023   +01 53 34.10  .11425 1.1152 169.0 25.2 .514  95
2020 09 25 07  00 52 21.846   +01 53 32.02  .11458 1.1155 169.1 25.2 .516  95
2020 09 25 08  00 52 21.667   +01 53 29.95  .11492 1.1159 169.1 25.2 .517  95
2020 09 25 09  00 52 21.486   +01 53 27.89  .11525 1.1162 169.1 25.2 .518  95
2020 09 25 10  00 52 21.303   +01 53 25.84  .11558 1.1165 169.2 25.2 .519  95
2020 09 25 11  00 52 21.119   +01 53 23.80  .11592 1.1168 169.2 25.2 .521  95
2020 09 25 12  00 52 20.933   +01 53 21.77  .11625 1.1172 169.3 25.2 .522  95
2020 09 25 13  00 52 20.745   +01 53 19.75  .11659 1.1175 169.3 25.2 .523  95
2020 09 25 14  00 52 20.555   +01 53 17.74  .11692 1.1178 169.3 25.2 .524  95
2020 09 25 15  00 52 20.364   +01 53 15.74  .11725 1.1182 169.4 25.2 .525  95
2020 09 25 16  00 52 20.171   +01 53 13.75  .11759 1.1185 169.4 25.2 .527  95
2020 09 25 17  00 52 19.976   +01 53 11.78  .11792 1.1188 169.5 25.3 .528  95
2020 09 25 18  00 52 19.780   +01 53 09.81  .11826 1.1192 169.5 25.3 .529  95
2020 09 25 19  00 52 19.582   +01 53 07.85  .11859 1.1195 169.5 25.3 .530  95
2020 09 25 20  00 52 19.383   +01 53 05.90  .11893 1.1198 169.6 25.3 .532  95
2020 09 25 21  00 52 19.182   +01 53 03.96  .11926 1.1202 169.6 25.3 .533  95
2020 09 25 22  00 52 18.979   +01 53 02.03  .11960 1.1205 169.7 25.3 .534  95
2020 09 25 23  00 52 18.775   +01 53 00.11  .11993 1.1208 169.7 25.3 .535  95
2020 09 26 00  00 52 18.569   +01 52 58.20  .12027 1.1211 169.7 25.3 .536  95
2020 09 26 01  00 52 18.362   +01 52 56.30  .12060 1.1215 169.8 25.3 .538  95
2020 09 26 02  00 52 18.153   +01 52 54.41  .12094 1.1218 169.8 25.3 .539  95
2020 09 26 03  00 52 17.943   +01 52 52.53  .12127 1.1221 169.9 25.3 .540  95
2020 09 26 04  00 52 17.731   +01 52 50.66  .12161 1.1225 169.9 25.3 .541  95
2020 09 26 05  00 52 17.518   +01 52 48.80  .12194 1.1228 169.9 25.3 .542  95
2020 09 26 06  00 52 17.303   +01 52 46.95  .12228 1.1231 170.0 25.3 .544  95
2020 09 26 07  00 52 17.087   +01 52 45.11  .12262 1.1235 170.0 25.3 .545  95
2020 09 26 08  00 52 16.869   +01 52 43.28  .12295 1.1238 170.1 25.3 .546  95
2020 09 26 09  00 52 16.650   +01 52 41.46  .12329 1.1241 170.1 25.3 .547  95
2020 09 26 10  00 52 16.430   +01 52 39.65  .12362 1.1245 170.1 25.3 .548  95
2020 09 26 11  00 52 16.208   +01 52 37.85  .12396 1.1248 170.2 25.3 .549  95
2020 09 26 12  00 52 15.985   +01 52 36.05  .12430 1.1251 170.2 25.3 .551  95
2020 09 26 13  00 52 15.761   +01 52 34.27  .12463 1.1255 170.2 25.4 .552  95
2020 09 26 14  00 52 15.535   +01 52 32.50  .12497 1.1258 170.3 25.4 .553  95
2020 09 26 15  00 52 15.308   +01 52 30.74  .12531 1.1261 170.3 25.4 .554  95
2020 09 26 16  00 52 15.080   +01 52 28.98  .12564 1.1265 170.4 25.4 .555  95
2020 09 26 17  00 52 14.850   +01 52 27.24  .12598 1.1268 170.4 25.4 .557  95
2020 09 26 18  00 52 14.619   +01 52 25.50  .12632 1.1271 170.4 25.4 .558  95
2020 09 26 19  00 52 14.387   +01 52 23.78  .12665 1.1275 170.5 25.4 .559  95
2020 09 26 20  00 52 14.154   +01 52 22.06  .12699 1.1278 170.5 25.4 .560  95
2020 09 26 21  00 52 13.919   +01 52 20.36  .12733 1.1281 170.6 25.4 .561  95
2020 09 26 22  00 52 13.684   +01 52 18.66  .12767 1.1285 170.6 25.4 .562  95
2020 09 26 23  00 52 13.447   +01 52 16.97  .12800 1.1288 170.6 25.4 .564  95
2020 09 27 00  00 52 13.208   +01 52 15.30  .12834 1.1291 170.7 25.4 .565  95